Time,TemperatureF,DewpointF,PressureIn,WindDirection,WindDirectionDegrees,WindSpeedMPH,WindSpeedGustMPH,Humidity,HourlyPrecipIn,Conditions,Clouds,dailyrainin,SoftwareType,DateUTC
2013-02-21 00:00:00,61.5,55.1,29.77,SW,225,0.0,0.0,74,0.00,,,0.00,fowsr,2013-02-21 05:00:00,
2013-02-21 00:05:00,61.5,55.1,29.77,SW,225,0.0,0.0,74,0.00,,,0.00,fowsr,2013-02-21 05:05:00,
2013-02-21 00:10:00,61.5,55.4,29.76,SW,225,0.0,0.0,75,0.00,,,0.00,fowsr,2013-02-21 05:10:00,
2013-02-21 00:15:00,61.3,55.2,29.76,SW,225,0.0,0.0,75,0.00,,,0.00,fowsr,2013-02-21 05:15:00,
2013-02-21 00:20:00,61.3,55.2,29.77,SW,225,0.0,0.0,75,0.00,,,0.00,fowsr,2013-02-21 05:20:00,
2013-02-21 00:25:00,61.3,55.2,29.77,SW,225,0.0,0.0,75,0.00,,,0.00,fowsr,2013-02-21 05:25:00,
2013-02-21 00:30:00,61.3,55.2,29.77,SW,225,0.0,0.0,75,0.00,,,0.00,fowsr,2013-02-21 05:30:00,
2013-02-21 00:35:00,61.3,55.2,29.76,SW,225,0.0,0.0,75,0.00,,,0.00,fowsr,2013-02-21 05:35:00,
2013-02-21 00:45:00,61.3,55.5,29.76,SW,225,0.0,0.0,76,0.00,,,0.00,fowsr,2013-02-21 05:45:00,
2013-02-21 00:50:00,61.2,55.3,29.76,SW,225,0.0,0.0,76,0.00,,,0.00,fowsr,2013-02-21 05:50:00,
2013-02-21 00:56:00,61.2,55.3,29.76,SW,225,0.0,0.0,76,0.00,,,0.00,fowsr,2013-02-21 05:56:00,
2013-02-21 01:05:00,61.2,55.3,29.76,SW,225,0.0,0.0,76,0.00,,,0.00,fowsr,2013-02-21 06:05:00,
2013-02-21 01:10:00,61.0,55.1,29.75,SW,225,0.0,0.0,76,0.00,,,0.00,fowsr,2013-02-21 06:10:00,
2013-02-21 01:15:00,61.0,55.1,29.75,SW,225,0.0,0.0,76,0.00,,,0.00,fowsr,2013-02-21 06:15:00,
2013-02-21 01:20:00,60.8,55.0,29.76,SW,225,0.0,0.0,76,0.00,,,0.00,fowsr,2013-02-21 06:20:00,
2013-02-21 01:25:00,60.8,55.2,29.76,SW,225,0.0,0.0,77,0.00,,,0.00,fowsr,2013-02-21 06:25:00,
2013-02-21 01:30:00,60.8,55.2,29.76,SW,225,0.0,0.0,77,0.00,,,0.00,fowsr,2013-02-21 06:30:00,
2013-02-21 01:35:00,60.6,55.3,29.76,SW,225,0.0,0.0,78,0.00,,,0.00,fowsr,2013-02-21 06:35:00,
2013-02-21 01:40:00,60.6,55.3,29.76,SW,225,0.0,0.0,78,0.00,,,0.00,fowsr,2013-02-21 06:40:00,
2013-02-21 01:45:00,60.6,55.3,29.76,SW,225,0.0,0.0,78,0.00,,,0.00,fowsr,2013-02-21 06:45:00,
2013-02-21 01:50:00,60.4,55.2,29.76,SW,225,0.0,0.0,78,0.00,,,0.00,fowsr,2013-02-21 06:50:00,
2013-02-21 01:55:00,60.3,55.2,29.75,SW,225,0.0,0.0,79,0.00,,,0.00,fowsr,2013-02-21 06:55:00,
2013-02-21 02:00:00,60.3,55.2,29.75,SW,225,0.0,0.0,79,0.00,,,0.00,fowsr,2013-02-21 07:00:00,
2013-02-21 02:05:00,60.1,55.1,29.75,SW,225,0.0,0.0,79,0.00,,,0.00,fowsr,2013-02-21 07:05:00,
2013-02-21 02:10:00,60.1,55.1,29.75,SW,225,0.0,0.0,79,0.00,,,0.00,fowsr,2013-02-21 07:10:00,
2013-02-21 02:15:00,60.1,55.3,29.75,SW,225,0.0,0.0,80,0.00,,,0.00,fowsr,2013-02-21 07:15:00,
2013-02-21 02:20:00,60.1,55.3,29.75,SW,225,0.0,0.0,80,0.00,,,0.00,fowsr,2013-02-21 07:20:00,
2013-02-21 02:25:00,60.3,55.8,29.75,SW,225,0.0,0.0,81,0.00,,,0.00,fowsr,2013-02-21 07:25:00,
2013-02-21 02:30:00,60.4,55.9,29.74,SW,225,0.0,0.0,81,0.00,,,0.00,fowsr,2013-02-21 07:30:00,
2013-02-21 02:35:00,60.6,56.1,29.75,SW,225,0.0,0.0,81,0.00,,,0.00,fowsr,2013-02-21 07:35:00,
2013-02-21 02:40:00,60.8,56.0,29.74,SW,225,0.0,0.0,80,0.00,,,0.00,fowsr,2013-02-21 07:40:00,
2013-02-21 02:45:00,61.0,56.2,29.74,SW,225,0.0,0.0,80,0.00,,,0.00,fowsr,2013-02-21 07:45:00,
2013-02-21 02:50:00,61.2,56.4,29.74,SW,225,0.0,0.0,80,0.00,,,0.00,fowsr,2013-02-21 07:50:00,
2013-02-21 02:55:00,61.2,56.4,29.74,SW,225,0.0,0.0,80,0.00,,,0.00,fowsr,2013-02-21 07:55:00,
2013-02-21 03:00:00,61.3,56.6,29.74,SW,225,0.0,0.0,80,0.00,,,0.00,fowsr,2013-02-21 08:00:00,
2013-02-21 03:05:00,61.5,56.7,29.75,SW,225,0.0,0.0,80,0.00,,,0.00,fowsr,2013-02-21 08:05:00,
2013-02-21 03:10:00,61.5,56.7,29.75,SW,225,0.0,0.0,80,0.00,,,0.00,fowsr,2013-02-21 08:10:00,
2013-02-21 03:15:00,61.7,56.9,29.75,SW,225,0.0,0.0,80,0.00,,,0.00,fowsr,2013-02-21 08:15:00,
2013-02-21 03:20:00,61.7,56.9,29.74,SW,225,0.0,0.0,80,0.00,,,0.00,fowsr,2013-02-21 08:20:00,
2013-02-21 03:25:00,61.7,56.9,29.73,SW,225,0.0,0.0,80,0.00,,,0.00,fowsr,2013-02-21 08:25:00,
2013-02-21 03:30:00,61.9,57.1,29.74,SW,225,0.0,0.0,80,0.00,,,0.00,fowsr,2013-02-21 08:30:00,
2013-02-21 03:35:00,61.9,57.1,29.74,SW,225,0.0,0.0,80,0.00,,,0.00,fowsr,2013-02-21 08:35:00,
2013-02-21 03:40:00,62.1,57.3,29.74,SW,225,0.0,0.0,80,0.00,,,0.00,fowsr,2013-02-21 08:40:00,
2013-02-21 03:45:00,62.1,57.3,29.74,SW,225,0.0,0.0,80,0.00,,,0.00,fowsr,2013-02-21 08:45:00,
2013-02-21 03:50:00,62.2,57.4,29.74,SW,225,0.0,0.0,80,0.00,,,0.00,fowsr,2013-02-21 08:50:00,
2013-02-21 03:55:00,62.2,57.4,29.74,SW,225,0.0,0.0,80,0.00,,,0.00,fowsr,2013-02-21 08:55:00,
2013-02-21 04:00:00,62.2,57.4,29.74,SW,225,0.0,0.0,80,0.00,,,0.00,fowsr,2013-02-21 09:00:00,
2013-02-21 04:05:00,62.4,57.6,29.74,SW,225,0.0,0.0,80,0.00,,,0.00,fowsr,2013-02-21 09:05:00,
2013-02-21 04:10:00,62.4,57.3,29.74,SW,225,0.0,0.0,79,0.00,,,0.00,fowsr,2013-02-21 09:10:00,
2013-02-21 04:15:00,62.4,57.3,29.74,SW,225,0.0,0.0,79,0.00,,,0.00,fowsr,2013-02-21 09:15:00,
2013-02-21 04:20:00,62.4,57.1,29.74,SW,225,0.0,0.0,78,0.00,,,0.00,fowsr,2013-02-21 09:20:00,
2013-02-21 04:25:00,62.4,57.1,29.73,SW,225,0.0,0.0,78,0.00,,,0.00,fowsr,2013-02-21 09:25:00,
2013-02-21 04:30:00,62.4,56.8,29.74,SW,225,0.0,0.0,77,0.00,,,0.00,fowsr,2013-02-21 09:30:00,
2013-02-21 04:35:00,62.4,56.8,29.73,SW,225,0.0,0.0,77,0.00,,,0.00,fowsr,2013-02-21 09:35:00,
2013-02-21 04:40:00,62.4,56.8,29.74,SW,225,0.0,0.0,77,0.00,,,0.00,fowsr,2013-02-21 09:40:00,
2013-02-21 04:45:00,62.2,56.6,29.74,SW,225,0.0,0.0,77,0.00,,,0.00,fowsr,2013-02-21 09:45:00,
2013-02-21 04:50:00,62.2,56.3,29.74,SW,225,0.0,0.0,76,0.00,,,0.00,fowsr,2013-02-21 09:50:00,
2013-02-21 04:55:00,62.2,56.3,29.74,SW,225,0.0,0.0,76,0.00,,,0.00,fowsr,2013-02-21 09:55:00,
2013-02-21 05:00:00,62.2,56.3,29.75,SW,225,0.0,0.0,76,0.00,,,0.00,fowsr,2013-02-21 10:00:00,
2013-02-21 05:05:00,62.2,56.3,29.74,SW,225,0.0,0.0,76,0.00,,,0.00,fowsr,2013-02-21 10:05:00,
2013-02-21 05:10:00,62.4,56.5,29.74,SW,225,0.0,0.0,76,0.00,,,0.00,fowsr,2013-02-21 10:10:00,
2013-02-21 05:15:00,62.4,56.5,29.74,SW,225,0.0,0.0,76,0.00,,,0.00,fowsr,2013-02-21 10:15:00,
2013-02-21 05:20:00,62.4,56.2,29.75,SW,225,0.0,0.0,75,0.00,,,0.00,fowsr,2013-02-21 10:20:00,
2013-02-21 05:25:00,62.4,56.2,29.75,SW,225,0.0,0.0,75,0.00,,,0.00,fowsr,2013-02-21 10:25:00,
2013-02-21 05:30:00,62.4,56.2,29.75,SW,225,0.0,0.0,75,0.00,,,0.00,fowsr,2013-02-21 10:30:00,
2013-02-21 05:35:00,62.4,56.0,29.76,SW,225,0.0,0.0,74,0.00,,,0.00,fowsr,2013-02-21 10:35:00,
2013-02-21 05:40:00,62.4,56.0,29.75,SW,225,0.0,0.0,74,0.00,,,0.00,fowsr,2013-02-21 10:40:00,
2013-02-21 05:45:00,62.4,56.0,29.75,SW,225,0.0,0.0,74,0.00,,,0.00,fowsr,2013-02-21 10:45:00,
2013-02-21 05:50:00,62.4,55.7,29.76,SW,225,0.0,0.0,73,0.00,,,0.00,fowsr,2013-02-21 10:50:00,
2013-02-21 05:55:00,62.8,55.7,29.76,SW,225,0.0,0.0,72,0.00,,,0.00,fowsr,2013-02-21 10:55:00,
2013-02-21 06:00:00,62.8,55.7,29.76,SW,225,0.0,0.0,72,0.00,,,0.00,fowsr,2013-02-21 11:00:00,
2013-02-21 06:05:00,62.8,55.7,29.76,SW,225,0.0,0.0,72,0.00,,,0.00,fowsr,2013-02-21 11:05:00,
2013-02-21 06:10:00,62.8,55.7,29.76,SW,225,0.0,0.0,72,0.00,,,0.00,fowsr,2013-02-21 11:10:00,
2013-02-21 06:15:00,62.8,55.4,29.76,SW,225,0.0,0.0,71,0.00,,,0.00,fowsr,2013-02-21 11:15:00,
2013-02-21 06:20:00,62.8,55.4,29.76,SW,225,0.0,0.0,71,0.00,,,0.00,fowsr,2013-02-21 11:20:00,
2013-02-21 06:25:00,62.8,55.4,29.76,SW,225,0.0,0.0,71,0.00,,,0.00,fowsr,2013-02-21 11:25:00,
2013-02-21 06:30:00,62.8,55.4,29.76,SW,225,0.0,0.0,71,0.00,,,0.00,fowsr,2013-02-21 11:30:00,
2013-02-21 06:35:00,62.8,55.4,29.76,SW,225,0.0,0.0,71,0.00,,,0.00,fowsr,2013-02-21 11:35:00,
2013-02-21 06:40:00,62.8,55.4,29.76,SW,225,0.0,0.0,71,0.00,,,0.00,fowsr,2013-02-21 11:40:00,
2013-02-21 06:45:00,62.4,55.4,29.76,SW,225,0.0,0.0,72,0.00,,,0.00,fowsr,2013-02-21 11:45:00,
2013-02-21 06:50:00,62.4,55.4,29.76,SW,225,0.0,0.0,72,0.00,,,0.00,fowsr,2013-02-21 11:50:00,
2013-02-21 06:55:00,62.4,55.4,29.76,SW,225,0.0,0.0,72,0.00,,,0.00,fowsr,2013-02-21 11:55:00,
2013-02-21 07:00:00,62.4,55.4,29.76,SW,225,0.0,0.0,72,0.00,,,0.00,fowsr,2013-02-21 12:00:00,
2013-02-21 07:05:00,62.2,55.2,29.76,SW,225,0.0,0.0,72,0.00,,,0.00,fowsr,2013-02-21 12:05:00,
2013-02-21 07:10:00,62.2,55.2,29.76,SW,225,0.0,0.0,72,0.00,,,0.00,fowsr,2013-02-21 12:10:00,
2013-02-21 07:15:00,62.2,55.2,29.76,SW,225,0.0,0.0,72,0.00,,,0.00,fowsr,2013-02-21 12:15:00,
2013-02-21 07:20:00,62.2,55.2,29.77,SW,225,0.0,0.0,72,0.00,,,0.00,fowsr,2013-02-21 12:20:00,
2013-02-21 07:25:00,62.4,55.4,29.77,SW,225,0.0,0.0,72,0.00,,,0.00,fowsr,2013-02-21 12:25:00,
2013-02-21 07:30:00,62.4,55.4,29.77,SW,225,0.0,0.0,72,0.00,,,0.00,fowsr,2013-02-21 12:30:00,
2013-02-21 07:35:00,62.8,55.7,29.77,SW,225,0.0,0.0,72,0.00,,,0.00,fowsr,2013-02-21 12:35:00,
2013-02-21 07:40:00,63.0,55.9,29.78,SW,225,0.0,0.0,72,0.00,,,0.00,fowsr,2013-02-21 12:40:00,
2013-02-21 07:45:00,63.3,55.9,29.78,SW,225,0.0,0.0,71,0.00,,,0.00,fowsr,2013-02-21 12:45:00,
2013-02-21 07:50:00,64.0,56.6,29.78,SW,225,0.0,0.0,71,0.00,,,0.00,fowsr,2013-02-21 12:50:00,
2013-02-21 07:55:00,64.8,57.0,29.78,SW,225,0.0,0.0,70,0.00,,,0.00,fowsr,2013-02-21 12:55:00,
2013-02-21 08:00:00,65.3,57.2,29.78,SW,225,0.0,0.0,69,0.00,,,0.00,fowsr,2013-02-21 13:00:00,
2013-02-21 08:05:00,65.5,57.4,29.79,SW,225,0.0,0.0,69,0.00,,,0.00,fowsr,2013-02-21 13:05:00,
2013-02-21 08:10:00,66.0,57.6,29.79,SW,225,0.0,0.0,68,0.00,,,0.00,fowsr,2013-02-21 13:10:00,
2013-02-21 08:15:00,66.2,57.4,29.79,SW,225,0.0,0.0,67,0.00,,,0.00,fowsr,2013-02-21 13:15:00,
2013-02-21 08:20:00,66.6,57.8,29.80,SW,225,0.0,0.0,67,0.00,,,0.00,fowsr,2013-02-21 13:20:00,
2013-02-21 08:25:00,66.9,58.1,29.80,SW,225,0.0,0.0,67,0.00,,,0.00,fowsr,2013-02-21 13:25:00,
2013-02-21 08:30:00,67.1,58.3,29.80,SW,225,0.0,0.0,67,0.00,,,0.00,fowsr,2013-02-21 13:30:00,
2013-02-21 08:35:00,67.6,58.8,29.80,SW,225,0.0,0.0,67,0.00,,,0.00,fowsr,2013-02-21 13:35:00,
2013-02-21 08:40:00,68.2,59.0,29.80,SW,225,0.0,0.0,66,0.00,,,0.00,fowsr,2013-02-21 13:40:00,
2013-02-21 08:45:00,68.7,59.5,29.80,SW,225,0.0,0.0,66,0.00,,,0.00,fowsr,2013-02-21 13:45:00,
2013-02-21 08:50:00,69.3,59.7,29.81,SW,225,0.0,0.0,65,0.00,,,0.00,fowsr,2013-02-21 13:50:00,
2013-02-21 08:55:00,69.6,60.0,29.81,SW,225,0.0,0.0,65,0.00,,,0.00,fowsr,2013-02-21 13:55:00,
2013-02-21 09:00:00,69.6,60.0,29.81,SW,225,0.0,0.0,65,0.00,,,0.00,fowsr,2013-02-21 14:00:00,
2013-02-21 09:05:00,69.4,59.8,29.81,SW,225,0.0,0.0,65,0.00,,,0.00,fowsr,2013-02-21 14:05:00,
2013-02-21 09:10:00,69.6,60.3,29.81,SW,225,0.0,0.0,66,0.00,,,0.00,fowsr,2013-02-21 14:10:00,
2013-02-21 09:15:00,70.0,60.4,29.81,SW,225,0.0,0.0,65,0.00,,,0.00,fowsr,2013-02-21 14:15:00,
2013-02-21 09:20:00,70.5,60.9,29.81,SW,225,0.0,0.0,65,0.00,,,0.00,fowsr,2013-02-21 14:20:00,
2013-02-21 09:25:00,71.2,61.5,29.81,SW,225,0.0,0.0,65,0.00,,,0.00,fowsr,2013-02-21 14:25:00,
2013-02-21 09:30:00,71.6,61.5,29.81,SW,225,0.0,0.0,64,0.00,,,0.00,fowsr,2013-02-21 14:30:00,
2013-02-21 09:35:00,72.0,61.9,29.81,SW,225,0.0,0.0,64,0.00,,,0.00,fowsr,2013-02-21 14:35:00,
2013-02-21 09:40:00,72.5,62.4,29.81,SW,225,0.0,0.0,64,0.00,,,0.00,fowsr,2013-02-21 14:40:00,
2013-02-21 09:45:00,73.6,63.7,29.81,SW,225,0.0,0.7,65,0.00,,,0.00,fowsr,2013-02-21 14:45:00,
2013-02-21 09:50:00,75.0,64.7,29.81,SW,225,0.0,0.0,64,0.00,,,0.00,fowsr,2013-02-21 14:50:00,
2013-02-21 09:55:00,76.1,65.0,29.80,SW,225,0.0,0.0,62,0.00,,,0.00,fowsr,2013-02-21 14:55:00,
2013-02-21 10:00:00,77.0,65.5,29.81,SW,225,0.0,0.0,61,0.00,,,0.00,fowsr,2013-02-21 15:00:00,
2013-02-21 10:05:00,77.9,66.0,29.80,SW,225,0.0,0.0,60,0.00,,,0.00,fowsr,2013-02-21 15:05:00,
2013-02-21 10:10:00,78.6,66.6,29.81,SW,225,0.0,0.0,60,0.00,,,0.00,fowsr,2013-02-21 15:10:00,
2013-02-21 10:15:00,79.3,66.9,29.81,SW,225,0.0,0.0,59,0.00,,,0.00,fowsr,2013-02-21 15:15:00,
2013-02-21 10:20:00,79.9,67.0,29.81,SW,225,0.0,0.0,58,0.00,,,0.00,fowsr,2013-02-21 15:20:00,
2013-02-21 10:25:00,80.2,67.4,29.81,SW,225,0.0,0.0,58,0.00,,,0.00,fowsr,2013-02-21 15:25:00,
2013-02-21 10:30:00,81.3,68.0,29.81,SW,225,0.0,0.0,57,0.00,,,0.00,fowsr,2013-02-21 15:30:00,
2013-02-21 10:35:00,82.0,68.2,29.80,SW,225,0.0,0.0,56,0.00,,,0.00,fowsr,2013-02-21 15:35:00,
2013-02-21 10:40:00,82.4,68.1,29.81,SW,225,0.0,0.0,55,0.00,,,0.00,fowsr,2013-02-21 15:40:00,
2013-02-21 10:45:00,82.6,68.3,29.81,SW,225,0.0,0.0,55,0.00,,,0.00,fowsr,2013-02-21 15:45:00,
2013-02-21 10:50:00,83.1,68.8,29.80,SW,225,0.0,0.0,55,0.00,,,0.00,fowsr,2013-02-21 15:50:00,
2013-02-21 10:55:00,83.3,69.0,29.80,SW,225,0.0,0.0,55,0.00,,,0.00,fowsr,2013-02-21 15:55:00,
2013-02-21 11:00:00,83.5,68.7,29.80,SW,225,0.0,0.0,54,0.00,,,0.00,fowsr,2013-02-21 16:00:00,
2013-02-21 11:05:00,83.5,68.7,29.80,SW,225,0.0,0.0,54,0.00,,,0.00,fowsr,2013-02-21 16:05:00,
2013-02-21 11:10:00,83.7,68.9,29.80,SW,225,0.0,0.0,54,0.00,,,0.00,fowsr,2013-02-21 16:10:00,
2013-02-21 11:15:00,84.0,69.2,29.80,SW,225,0.0,0.0,54,0.00,,,0.00,fowsr,2013-02-21 16:15:00,
2013-02-21 11:20:00,84.4,68.7,29.80,SW,225,0.0,0.0,52,0.00,,,0.00,fowsr,2013-02-21 16:20:00,
2013-02-21 11:25:00,84.4,68.2,29.80,SW,225,0.0,0.0,51,0.00,,,0.00,fowsr,2013-02-21 16:25:00,
2013-02-21 11:30:00,84.6,67.9,29.79,SW,225,0.0,0.0,50,0.00,,,0.00,fowsr,2013-02-21 16:30:00,
2013-02-21 11:35:00,84.7,68.5,29.79,SW,225,0.0,0.0,51,0.00,,,0.00,fowsr,2013-02-21 16:35:00,
2013-02-21 11:40:00,85.1,68.4,29.79,SW,225,0.0,0.0,50,0.00,,,0.00,fowsr,2013-02-21 16:40:00,
2013-02-21 11:45:00,85.1,68.0,29.79,SW,225,0.0,0.0,49,0.00,,,0.00,fowsr,2013-02-21 16:45:00,
2013-02-21 11:50:00,85.1,68.0,29.79,SW,225,0.0,0.0,49,0.00,,,0.00,fowsr,2013-02-21 16:50:00,
2013-02-21 11:55:00,85.1,67.5,29.79,SW,225,0.0,0.0,48,0.00,,,0.00,fowsr,2013-02-21 16:55:00,
2013-02-21 12:00:00,85.1,67.5,29.78,SW,225,0.0,0.0,48,0.00,,,0.00,fowsr,2013-02-21 17:00:00,
2013-02-21 12:05:00,85.6,68.0,29.78,SW,225,0.0,0.0,48,0.00,,,0.00,fowsr,2013-02-21 17:05:00,
2013-02-21 12:10:00,86.0,67.8,29.77,SW,225,0.0,0.0,47,0.00,,,0.00,fowsr,2013-02-21 17:10:00,
2013-02-21 12:15:00,86.4,68.1,29.77,SW,225,0.0,0.0,47,0.00,,,0.00,fowsr,2013-02-21 17:15:00,
2013-02-21 12:20:00,86.4,67.6,29.77,SW,225,0.0,0.0,46,0.00,,,0.00,fowsr,2013-02-21 17:20:00,
2013-02-21 12:25:00,86.4,67.6,29.77,SW,225,0.0,0.0,46,0.00,,,0.00,fowsr,2013-02-21 17:25:00,
2013-02-21 12:30:00,85.6,67.5,29.77,SW,225,0.0,0.0,47,0.00,,,0.00,fowsr,2013-02-21 17:30:00,
2013-02-21 12:35:00,84.7,67.2,29.77,SW,225,0.0,0.0,48,0.00,,,0.00,fowsr,2013-02-21 17:35:00,
2013-02-21 12:40:00,84.2,67.1,29.76,SW,225,0.0,0.0,49,0.00,,,0.00,fowsr,2013-02-21 17:40:00,
2013-02-21 12:45:00,84.6,67.5,29.76,SW,225,0.0,0.0,49,0.00,,,0.00,fowsr,2013-02-21 17:45:00,
2013-02-21 12:50:00,85.3,68.1,29.76,SW,225,0.0,0.0,49,0.00,,,0.00,fowsr,2013-02-21 17:50:00,
2013-02-21 12:55:00,85.8,68.1,29.75,SW,225,0.0,0.0,48,0.00,,,0.00,fowsr,2013-02-21 17:55:00,
2013-02-21 13:00:00,86.0,67.3,29.75,SW,225,0.0,0.0,46,0.00,,,0.00,fowsr,2013-02-21 18:00:00,
2013-02-21 13:05:00,85.8,67.7,29.75,SW,225,0.0,0.0,47,0.00,,,0.00,fowsr,2013-02-21 18:05:00,
2013-02-21 13:10:00,85.6,67.0,29.75,SW,225,0.0,0.0,46,0.00,,,0.00,fowsr,2013-02-21 18:10:00,
2013-02-21 13:15:00,86.2,67.0,29.74,SW,225,0.0,0.0,45,0.00,,,0.00,fowsr,2013-02-21 18:15:00,
2013-02-21 13:20:00,86.4,67.1,29.74,SW,225,0.0,0.0,45,0.00,,,0.00,fowsr,2013-02-21 18:20:00,
2013-02-21 13:25:00,86.7,67.0,29.74,SW,225,0.0,0.0,44,0.00,,,0.00,fowsr,2013-02-21 18:25:00,
2013-02-21 13:30:00,87.1,67.3,29.74,SW,225,0.0,0.0,44,0.00,,,0.00,fowsr,2013-02-21 18:30:00,
2013-02-21 13:35:00,87.4,67.6,29.74,SW,225,0.0,0.0,44,0.00,,,0.00,fowsr,2013-02-21 18:35:00,
2013-02-21 13:40:00,87.6,67.7,29.74,SW,225,0.0,0.0,44,0.00,,,0.00,fowsr,2013-02-21 18:40:00,
2013-02-21 13:45:00,87.8,67.4,29.74,SW,225,0.0,0.0,43,0.00,,,0.00,fowsr,2013-02-21 18:45:00,
2013-02-21 13:50:00,87.6,67.7,29.74,SW,225,0.0,0.0,44,0.00,,,0.00,fowsr,2013-02-21 18:50:00,
2013-02-21 13:55:00,87.6,67.7,29.73,SW,225,0.0,0.0,44,0.00,,,0.00,fowsr,2013-02-21 18:55:00,
2013-02-21 14:00:00,87.6,67.7,29.73,SW,225,0.0,0.0,44,0.00,,,0.00,fowsr,2013-02-21 19:00:00,
2013-02-21 14:05:00,87.4,67.6,29.73,SW,225,0.0,0.0,44,0.00,,,0.00,fowsr,2013-02-21 19:05:00,
2013-02-21 14:10:00,86.9,67.1,29.73,SW,225,0.0,0.0,44,0.00,,,0.00,fowsr,2013-02-21 19:10:00,
2013-02-21 14:15:00,86.7,67.0,29.73,SW,225,0.0,0.0,44,0.00,,,0.00,fowsr,2013-02-21 19:15:00,
2013-02-21 14:20:00,86.2,66.5,29.73,SW,225,0.0,0.0,44,0.00,,,0.00,fowsr,2013-02-21 19:20:00,
2013-02-21 14:25:00,85.8,66.7,29.72,SW,225,0.0,0.0,45,0.00,,,0.00,fowsr,2013-02-21 19:25:00,
2013-02-21 14:30:00,85.6,66.5,29.72,SW,225,0.0,0.7,45,0.00,,,0.00,fowsr,2013-02-21 19:30:00,
2013-02-21 14:35:00,85.6,66.5,29.72,SW,225,0.0,0.0,45,0.00,,,0.00,fowsr,2013-02-21 19:35:00,
2013-02-21 14:40:00,85.3,66.7,29.72,SW,225,0.0,0.0,46,0.00,,,0.00,fowsr,2013-02-21 19:40:00,
2013-02-21 14:45:00,85.3,66.7,29.72,SW,225,0.0,0.0,46,0.00,,,0.00,fowsr,2013-02-21 19:45:00,
2013-02-21 14:50:00,84.7,66.2,29.71,SW,225,0.0,0.0,46,0.00,,,0.00,fowsr,2013-02-21 19:50:00,
2013-02-21 14:55:00,84.6,66.0,29.71,SW,225,0.0,0.0,46,0.00,,,0.00,fowsr,2013-02-21 19:55:00,
2013-02-21 15:00:00,84.4,65.9,29.71,SW,225,0.0,0.0,46,0.00,,,0.00,fowsr,2013-02-21 20:00:00,
2013-02-21 15:05:00,84.2,65.2,29.71,SW,225,0.0,0.0,45,0.00,,,0.00,fowsr,2013-02-21 20:05:00,
2013-02-21 15:15:00,84.0,65.6,29.70,SW,225,0.0,0.0,46,0.00,,,0.00,fowsr,2013-02-21 20:15:00,
2013-02-21 15:20:00,83.8,65.9,29.70,SW,225,0.0,0.0,47,0.00,,,0.00,fowsr,2013-02-21 20:20:00,
2013-02-21 15:25:00,83.7,65.2,29.70,SW,225,0.0,0.0,46,0.00,,,0.00,fowsr,2013-02-21 20:25:00,
2013-02-21 15:30:00,83.5,65.6,29.70,SW,225,0.0,0.0,47,0.00,,,0.00,fowsr,2013-02-21 20:30:00,
2013-02-21 15:35:00,83.7,65.7,29.70,SW,225,0.0,0.0,47,0.00,,,0.00,fowsr,2013-02-21 20:35:00,
2013-02-21 15:40:00,83.7,65.7,29.70,SW,225,0.0,0.0,47,0.00,,,0.00,fowsr,2013-02-21 20:40:00,
2013-02-21 15:45:00,83.5,65.6,29.71,SW,225,0.0,0.0,47,0.00,,,0.00,fowsr,2013-02-21 20:45:00,
2013-02-21 15:50:00,83.5,65.6,29.70,SW,225,0.0,0.0,47,0.00,,,0.00,fowsr,2013-02-21 20:50:00,
2013-02-21 15:55:00,83.3,64.9,29.70,SW,225,0.0,0.0,46,0.00,,,0.00,fowsr,2013-02-21 20:55:00,
2013-02-21 16:00:00,82.9,64.6,29.70,SW,225,0.0,0.0,46,0.00,,,0.00,fowsr,2013-02-21 21:00:00,
2013-02-21 16:05:00,82.8,64.4,29.70,SW,225,0.0,0.0,46,0.00,,,0.00,fowsr,2013-02-21 21:05:00,
2013-02-21 16:10:00,82.6,64.3,29.70,SW,225,0.0,0.0,46,0.00,,,0.00,fowsr,2013-02-21 21:10:00,
2013-02-21 16:15:00,82.4,64.1,29.70,SW,225,0.0,0.0,46,0.00,,,0.00,fowsr,2013-02-21 21:15:00,
2013-02-21 16:20:00,82.2,63.5,29.70,SW,225,0.0,0.0,45,0.00,,,0.00,fowsr,2013-02-21 21:20:00,
2013-02-21 16:25:00,82.2,63.5,29.70,SW,225,0.0,0.0,45,0.00,,,0.00,fowsr,2013-02-21 21:25:00,
2013-02-21 16:30:00,82.0,63.3,29.70,SW,225,0.0,0.0,45,0.00,,,0.00,fowsr,2013-02-21 21:30:00,
2013-02-21 16:35:00,81.9,63.2,29.69,SW,225,0.0,0.0,45,0.00,,,0.00,fowsr,2013-02-21 21:35:00,
2013-02-21 16:40:00,81.7,63.0,29.69,SW,225,0.0,0.0,45,0.00,,,0.00,fowsr,2013-02-21 21:40:00,
2013-02-21 16:45:00,81.7,63.0,29.69,SW,225,0.0,0.0,45,0.00,,,0.00,fowsr,2013-02-21 21:45:00,
2013-02-21 16:50:00,81.5,62.3,29.69,SW,225,0.0,0.0,44,0.00,,,0.00,fowsr,2013-02-21 21:50:00,
2013-02-21 16:55:00,81.3,62.7,29.69,SW,225,0.0,0.0,45,0.00,,,0.00,fowsr,2013-02-21 21:55:00,
2013-02-21 17:00:00,81.1,62.5,29.69,SW,225,0.0,0.0,45,0.00,,,0.00,fowsr,2013-02-21 22:00:00,
2013-02-21 17:05:00,81.0,62.8,29.69,SW,225,0.0,0.0,46,0.00,,,0.00,fowsr,2013-02-21 22:05:00,
2013-02-21 17:10:00,80.8,62.7,29.69,SW,225,0.0,0.0,46,0.00,,,0.00,fowsr,2013-02-21 22:10:00,
2013-02-21 17:15:00,80.4,62.8,29.69,SW,225,0.0,0.0,47,0.00,,,0.00,fowsr,2013-02-21 22:15:00,
2013-02-21 17:20:00,80.4,62.8,29.69,SW,225,0.0,0.0,47,0.00,,,0.00,fowsr,2013-02-21 22:20:00,
2013-02-21 17:25:00,80.4,63.3,29.69,SW,225,0.0,0.0,48,0.00,,,0.00,fowsr,2013-02-21 22:25:00,
2013-02-21 17:30:00,80.1,63.0,29.69,SW,225,0.0,0.0,48,0.00,,,0.00,fowsr,2013-02-21 22:30:00,
2013-02-21 17:35:00,79.9,62.8,29.69,SW,225,0.0,0.0,48,0.00,,,0.00,fowsr,2013-02-21 22:35:00,
2013-02-21 17:40:00,79.7,63.1,29.69,SW,225,0.0,0.0,49,0.00,,,0.00,fowsr,2013-02-21 22:40:00,
2013-02-21 17:45:00,79.5,62.9,29.69,SW,225,0.0,0.0,49,0.00,,,0.00,fowsr,2013-02-21 22:45:00,
2013-02-21 17:50:00,79.2,62.6,29.69,SW,225,0.0,0.0,49,0.00,,,0.00,fowsr,2013-02-21 22:50:00,
2013-02-21 17:55:00,78.8,62.3,29.69,SW,225,0.0,0.0,49,0.00,,,0.00,fowsr,2013-02-21 22:55:00,
2013-02-21 18:00:00,78.6,63.0,29.69,SW,225,0.0,0.0,51,0.00,,,0.00,fowsr,2013-02-21 23:00:00,
2013-02-21 18:05:00,78.3,62.7,29.69,SW,225,0.0,0.0,51,0.00,,,0.00,fowsr,2013-02-21 23:05:00,
2013-02-21 18:10:00,78.1,63.0,29.69,SW,225,0.0,0.0,52,0.00,,,0.00,fowsr,2013-02-21 23:10:00,
2013-02-21 18:15:00,77.7,63.0,29.69,SW,225,0.0,0.0,53,0.00,,,0.00,fowsr,2013-02-21 23:15:00,
2013-02-21 18:20:00,77.4,62.7,29.69,SW,225,0.0,0.0,53,0.00,,,0.00,fowsr,2013-02-21 23:20:00,
2013-02-21 18:25:00,77.0,62.4,29.69,SW,225,0.0,0.0,53,0.00,,,0.00,fowsr,2013-02-21 23:25:00,
2013-02-21 18:30:00,76.5,62.7,29.69,SW,225,0.0,0.0,55,0.00,,,0.00,fowsr,2013-02-21 23:30:00,
2013-02-21 18:35:00,76.3,62.6,29.70,SW,225,0.0,0.0,55,0.00,,,0.00,fowsr,2013-02-21 23:35:00,
2013-02-21 18:40:00,75.7,62.1,29.70,SW,225,0.0,0.0,55,0.00,,,0.00,fowsr,2013-02-21 23:40:00,
2013-02-21 18:45:00,75.4,62.1,29.70,SW,225,0.0,0.0,56,0.00,,,0.00,fowsr,2013-02-21 23:45:00,
2013-02-21 18:50:00,75.0,62.2,29.70,SW,225,0.0,0.0,57,0.00,,,0.00,fowsr,2013-02-21 23:50:00,
2013-02-21 18:55:00,74.7,61.8,29.69,SW,225,0.0,0.0,57,0.00,,,0.00,fowsr,2013-02-21 23:55:00,
2013-02-21 19:00:00,74.5,62.1,29.70,SW,225,0.0,0.0,58,0.00,,,0.00,fowsr,2013-02-22 00:00:00,
2013-02-21 19:05:00,74.1,61.7,29.69,SW,225,0.0,0.0,58,0.00,,,0.00,fowsr,2013-02-22 00:05:00,
2013-02-21 19:10:00,73.8,61.8,29.70,SW,225,0.0,0.0,59,0.00,,,0.00,fowsr,2013-02-22 00:10:00,
2013-02-21 19:15:00,73.4,61.4,29.70,SW,225,0.0,0.0,59,0.00,,,0.00,fowsr,2013-02-22 00:15:00,
2013-02-21 19:20:00,73.2,62.4,29.70,SW,225,0.0,0.0,62,0.00,,,0.00,fowsr,2013-02-22 00:20:00,
2013-02-21 19:25:00,73.0,62.5,29.70,SW,225,0.0,0.0,63,0.00,,,0.00,fowsr,2013-02-22 00:25:00,
2013-02-21 19:30:00,73.2,63.1,29.70,SW,225,0.0,0.0,64,0.00,,,0.00,fowsr,2013-02-22 00:30:00,
2013-02-21 19:35:00,73.2,63.4,29.70,SW,225,0.0,0.0,65,0.00,,,0.00,fowsr,2013-02-22 00:35:00,
2013-02-21 19:40:00,73.2,63.7,29.71,SW,225,0.0,0.0,66,0.00,,,0.00,fowsr,2013-02-22 00:40:00,
2013-02-21 19:45:00,73.0,63.6,29.71,SW,225,0.0,0.0,66,0.00,,,0.00,fowsr,2013-02-22 00:45:00,
2013-02-21 19:50:00,73.0,63.9,29.72,SW,225,0.0,0.7,67,0.00,,,0.00,fowsr,2013-02-22 00:50:00,
2013-02-21 19:55:00,73.0,64.2,29.72,SW,225,0.0,0.0,68,0.00,,,0.00,fowsr,2013-02-22 00:55:00,
2013-02-21 20:00:00,72.9,64.1,29.72,SW,225,0.0,0.0,68,0.00,,,0.00,fowsr,2013-02-22 01:00:00,
2013-02-21 20:05:00,72.7,63.9,29.72,SW,225,0.0,0.0,68,0.00,,,0.00,fowsr,2013-02-22 01:05:00,
2013-02-21 20:10:00,72.7,64.2,29.72,SW,225,0.0,0.0,69,0.00,,,0.00,fowsr,2013-02-22 01:10:00,
2013-02-21 20:15:00,72.5,64.0,29.72,SW,225,0.0,0.0,69,0.00,,,0.00,fowsr,2013-02-22 01:15:00,
2013-02-21 20:20:00,72.5,64.0,29.72,SW,225,0.0,0.0,69,0.00,,,0.00,fowsr,2013-02-22 01:20:00,
2013-02-21 20:25:00,72.3,64.2,29.72,SW,225,0.0,0.0,70,0.00,,,0.00,fowsr,2013-02-22 01:25:00,
2013-02-21 20:30:00,72.3,64.2,29.72,SW,225,0.0,0.0,70,0.00,,,0.00,fowsr,2013-02-22 01:30:00,
2013-02-21 20:35:00,72.1,64.3,29.73,SW,225,0.0,0.0,71,0.00,,,0.00,fowsr,2013-02-22 01:35:00,
2013-02-21 20:40:00,72.0,64.2,29.72,SW,225,0.0,0.0,71,0.00,,,0.00,fowsr,2013-02-22 01:40:00,
2013-02-21 20:45:00,72.0,64.2,29.72,SW,225,0.0,0.0,71,0.00,,,0.00,fowsr,2013-02-22 01:45:00,
2013-02-21 20:50:00,71.8,64.0,29.73,SW,225,0.0,0.0,71,0.00,,,0.00,fowsr,2013-02-22 01:50:00,
2013-02-21 20:55:00,71.8,64.3,29.73,SW,225,0.0,0.0,72,0.00,,,0.00,fowsr,2013-02-22 01:55:00,
2013-02-21 21:00:00,71.6,64.1,29.72,SW,225,0.0,0.0,72,0.00,,,0.00,fowsr,2013-02-22 02:00:00,
2013-02-21 21:05:00,71.6,64.1,29.72,SW,225,0.0,0.0,72,0.00,,,0.00,fowsr,2013-02-22 02:05:00,
2013-02-21 21:10:00,71.4,64.6,29.72,SW,225,0.0,0.0,74,0.00,,,0.00,fowsr,2013-02-22 02:10:00,
2013-02-21 21:15:00,71.2,64.4,29.73,SW,225,0.0,0.0,74,0.00,,,0.00,fowsr,2013-02-22 02:15:00,
2013-02-21 21:20:00,71.2,64.7,29.73,SW,225,0.0,0.0,75,0.00,,,0.00,fowsr,2013-02-22 02:20:00,
2013-02-21 21:25:00,71.1,64.5,29.73,SW,225,0.0,0.0,75,0.00,,,0.00,fowsr,2013-02-22 02:25:00,
2013-02-21 21:30:00,71.1,64.5,29.72,SW,225,0.0,0.0,75,0.00,,,0.00,fowsr,2013-02-22 02:30:00,
2013-02-21 21:35:00,71.1,64.8,29.73,SW,225,0.0,0.0,76,0.00,,,0.00,fowsr,2013-02-22 02:35:00,
2013-02-21 21:40:00,70.9,64.9,29.73,SW,225,0.0,0.0,77,0.00,,,0.00,fowsr,2013-02-22 02:40:00,
2013-02-21 21:45:00,70.9,64.9,29.73,SW,225,0.0,0.0,77,0.00,,,0.00,fowsr,2013-02-22 02:45:00,
2013-02-21 21:50:00,70.7,65.0,29.73,SW,225,0.0,0.0,78,0.00,,,0.00,fowsr,2013-02-22 02:50:00,
2013-02-21 21:55:00,70.5,65.2,29.73,SW,225,0.0,0.0,79,0.00,,,0.00,fowsr,2013-02-22 02:55:00,
2013-02-21 22:00:00,70.5,65.2,29.72,SW,225,0.0,0.0,79,0.00,,,0.00,fowsr,2013-02-22 03:00:00,
2013-02-21 22:05:00,70.5,65.4,29.73,SW,225,0.0,0.0,80,0.00,,,0.00,fowsr,2013-02-22 03:05:00,
2013-02-21 22:10:00,70.3,65.5,29.73,SW,225,0.0,0.0,81,0.00,,,0.00,fowsr,2013-02-22 03:10:00,
2013-02-21 22:15:00,70.3,65.5,29.73,SW,225,0.0,0.7,81,0.00,,,0.00,fowsr,2013-02-22 03:15:00,
2013-02-21 22:20:00,70.2,65.6,29.73,SW,225,0.0,0.0,82,0.00,,,0.00,fowsr,2013-02-22 03:20:00,
2013-02-21 22:25:00,70.2,65.6,29.73,SW,225,0.0,0.0,82,0.00,,,0.00,fowsr,2013-02-22 03:25:00,
2013-02-21 22:30:00,70.2,65.6,29.73,SW,225,0.0,0.0,82,0.00,,,0.00,fowsr,2013-02-22 03:30:00,
2013-02-21 22:35:00,70.2,65.6,29.73,SW,225,0.0,0.0,82,0.00,,,0.00,fowsr,2013-02-22 03:35:00,
2013-02-21 22:40:00,70.2,65.6,29.74,SW,225,0.0,0.0,82,0.00,,,0.00,fowsr,2013-02-22 03:40:00,
2013-02-21 22:45:00,70.2,65.6,29.73,SW,225,0.0,0.0,82,0.00,,,0.00,fowsr,2013-02-22 03:45:00,
2013-02-21 22:50:00,70.0,65.7,29.73,SW,225,0.0,0.0,83,0.00,,,0.00,fowsr,2013-02-22 03:50:00,
2013-02-21 22:55:00,70.0,65.7,29.73,SW,225,0.0,0.0,83,0.00,,,0.00,fowsr,2013-02-22 03:55:00,
2013-02-21 23:00:00,70.0,65.7,29.74,SW,225,0.0,0.0,83,0.00,,,0.00,fowsr,2013-02-22 04:00:00,
2013-02-21 23:05:00,70.0,65.7,29.74,SW,225,0.0,0.0,83,0.00,,,0.00,fowsr,2013-02-22 04:05:00,
2013-02-21 23:10:00,70.2,65.9,29.74,SW,225,0.0,0.0,83,0.00,,,0.00,fowsr,2013-02-22 04:10:00,
2013-02-21 23:15:00,70.2,66.2,29.74,SW,225,0.0,0.0,84,0.00,,,0.00,fowsr,2013-02-22 04:15:00,
2013-02-21 23:20:00,70.2,66.2,29.74,SW,225,0.0,0.0,84,0.00,,,0.00,fowsr,2013-02-22 04:20:00,
2013-02-21 23:25:00,70.0,66.0,29.74,SW,225,0.0,0.0,84,0.00,,,0.00,fowsr,2013-02-22 04:25:00,
2013-02-21 23:30:00,70.0,66.0,29.74,SW,225,0.0,0.0,84,0.00,,,0.00,fowsr,2013-02-22 04:30:00,
2013-02-21 23:35:00,70.0,66.0,29.74,SW,225,0.0,0.0,84,0.00,,,0.00,fowsr,2013-02-22 04:35:00,
2013-02-21 23:40:00,70.0,66.0,29.74,SW,225,0.0,0.0,84,0.00,,,0.00,fowsr,2013-02-22 04:40:00,
2013-02-21 23:45:00,70.0,66.0,29.74,SW,225,0.0,0.0,84,0.00,,,0.00,fowsr,2013-02-22 04:45:00,
2013-02-21 23:50:00,70.0,66.0,29.74,SW,225,0.0,0.0,84,0.00,,,0.00,fowsr,2013-02-22 04:50:00,
2013-02-21 23:55:00,70.0,66.0,29.74,SW,225,0.0,0.0,84,0.00,,,0.00,fowsr,2013-02-22 04:55:00,